Showing default

NIMBUS 2, 2173

Orbit data source: Space-Track

NIMBUS 2, 2173 is a payload satellite owned by GSFC (US) in SSO that was launched on Sun, 15 May 1966 UTC via a THOR SLV-2A AGENA B launch vehicle from the Air Force Western Test Range (AFWTR). Payloads include a variety of satellites, spacecraft, and rockets equipped with specific instruments for various scientific and technological missions. These include communications satellites like Starlink; space stations such as the ISS; scientific satellites like the Hubble; Earth observation satellites from companies like Planet Labs, Umbra, and HawkEye 360; GPS; miniature CubeSats for education and research; and military/defense satellites.

Loading next visibility...
NIMBUS 2 details
Identifier
2173, 1966-040A
Orbit
SSO
Last TLE update1 day ago
Origin
Flag of USGSFC (US)
ManufacturerGE/MSVD
MissionNon-operational Civil Weather
Bus & MotorNIMBUS, Unknown motor
Mass414 kg wet, 414 kg dry
Launch date (UTC)
1966-05-15 (59 years ago)
Launch vehicle
THOR SLV-2A AGENA B
Launch site
Air Force Western Test Range (AFWTR)
Object type
Payload
Rocket body
Debris
Shape & HBRCone + 2 Pan, 3.35 m
Radar Cross Section2.947 m², Large (>1 m²)

Expand to show TLE details & history

TLE from 1 day ago
0 NIMBUS 2
1 02173U 66040A   24356.14336865 -.00000006  00000-0  83623-4 0  9998
2 02173 100.5760 187.6957 0055670 127.6046 346.2229 13.33678118851234
Epoch: 2024-12-21T03:26Z
Definitive object data (Epoch: 2024-12-21T03:26:27.051Z)
Latitude64.28402°
Longitude-111.42898°
Altitude1,103.279 km
Speed7.326 km/s
True Right ascension02h 01m 31s
True Declination64° 09' 20"
Sunlit
Object was in full shadow at TLE epoch
Visualization TLE readout
Latitude67.83317°
Longitude19.90943°
Altitude1,120.215 km
Speed7.311 km/s
Apparent Right ascension15h 10m 54s
Apparent Declination28° 13' 35"
Sunlit
Object is in daylight
Visualization observer readout
Local Sidereal Time05:18:38
Azimuth28.948° NE
Elevation-15.666°
Doppler factor1
Orbital elements
Apogee altitude1,172.091 km
Perigee altitude1,088.492 km
Semi-major axis7,508.428 km
Eccentricity0.005567
Inclination100.576°
RAAN187.6957°
Arg. of periapsis127.6046°
True anomaly346.06995°
Mean anomaly346.2229°
Eccentric anomaly346.14653°
Mean motion3.33595 °/min
BSTAR0.000083623
Orbital period107.92 mins
Loading maneuver chart data...
Loading historical data...
Loading historical data...
Loading historical data...
Loading historical data...
Loading historical data...
Loading historical data...
Loading historical data...

NIMBUS 2 Visibility forecast

Observer location: undefined°, undefined

Span
Click to sort rows by Start time (UTC) header in descending order
Start Az.
Max El. time (UTC)
Max El. Az.
Max El.
End time (UTC)
End Az.
10 mins2024-12-22 11:25:55.160Z109.251° ESE2024-12-22 11:30:55.160Z61.452° ENE22.213°2024-12-22 11:35:55.160Z10.915° NNE
11 mins2024-12-22 13:11:55.160Z179.327° S2024-12-22 13:16:55.160Z259.863° W41.943°2024-12-22 13:22:55.160Z336.653° NNW
7 mins2024-12-23 00:32:55.160Z64.784° ENE2024-12-23 00:35:55.160Z97.089° ESE17.721°2024-12-23 00:39:55.160Z134.932° SE
12 mins2024-12-23 02:16:55.160Z9.945° NNE2024-12-23 02:21:55.160Z318.32° NNW42.861°2024-12-23 02:28:55.160Z207.407° SW
|